THOR ABLESTAR DEB, 1608

Orbit data source: Space-Track

THOR ABLESTAR DEB, 1608 is space debris in LEO originally from a launch on Sun, 13 Dec 1964 UTC launched from the Air Force Western Test Range (AFWTR). Debris objects in space refer to the collection of defunct objects orbiting the Earth. Examples of debris include non-operational satellites, rocket bodies, and fragments generated from explosions, collisions, or faulty payload assembly.

Loading next visibility...
THOR ABLESTAR DEB details
Identifier
1608, 1964-083H
Orbit
LEO
Last TLE update20 hours ago
Origin
Flag of USUSN BuWeps (US)
ManufacturerUnknown
MissionSpacecraft
Bus & MotorUnknown
MassUnknown
Launch date (UTC)
1964-12-13 (60 years ago)
Launch vehicleUnknown
Launch site
Air Force Western Test Range (AFWTR)
Object type
Payload
Rocket body
Debris
Shape & HBRUnknown
Radar Cross SectionSmall (<0.1 m²)

Expand to show TLE details & history

TLE from 20 hours ago
0 THOR ABLESTAR DEB
1 01608U 64083H   24355.74597937  .00001470  00000-0  12927-2 0  9991
2 01608  89.7585  80.3902 0016140 338.7277 188.7184 13.84896647999707
Epoch: 2024-12-20T17:54Z
Definitive object data (Epoch: 2024-12-20T17:54:12.617Z)
Latitude12.54078°
Longitude-98.02288°
Altitude960.508 km
Speed7.366 km/s
True Right ascension17h 21m 20s
True Declination12° 28' 12"
Sunlit
Object was in daylight at TLE epoch
Visualization TLE readout
Latitude57.78041°
Longitude82.38994°
Altitude954.623 km
Speed7.381 km/s
Apparent Right ascension03h 02m 34s
Apparent Declination15° 36' 04"
Sunlit
Object is in full shadow
Visualization observer readout
Local Sidereal Time13:13:02
Azimuth329.599° NNW
Elevation-28.907°
Doppler factor1
Orbital elements
Apogee altitude955.387 km
Perigee altitude931.752 km
Semi-major axis7,321.706 km
Eccentricity0.001614
Inclination89.7585°
RAAN80.3902°
Arg. of periapsis338.7277°
True anomaly188.69042°
Mean anomaly188.7184°
Eccentric anomaly188.70441°
Mean motion3.46437 °/min
BSTAR0.0012927
Orbital period103.91 mins
Loading maneuver chart data...

THOR ABLESTAR DEB Visibility forecast

Observer location: undefined°, undefined

Span
Click to sort rows by Start time (UTC) header in descending order
Start Az.
Max El. time (UTC)
Max El. Az.
Max El.
End time (UTC)
End Az.
11 mins2024-12-21 17:56:56.995Z7.025° NNE2024-12-21 18:02:56.995Z93.153° ESE42.982°2024-12-21 18:07:56.995Z172.053° S
5 mins2024-12-21 19:43:56.995Z311.277° NW2024-12-21 19:45:56.995Z288.805° WNW16.208°2024-12-21 19:48:56.995Z256.28° W
10 mins2024-12-22 05:37:56.995Z147.885° SSE2024-12-22 05:41:56.995Z94.409° ESE35.364°2024-12-22 05:47:56.995Z10.983° NNE
8 mins2024-12-22 07:22:56.995Z234.968° WSW2024-12-22 07:25:56.995Z271.105° WNW22.069°2024-12-22 07:30:56.995Z329.73° NNW
|